User: anonymous   Login
Location: Ffald-y-Brenin
(52.0833°N, 4.0000°W)
Time: 15:29:31
(UTC+00:00)
Language:

Cosmos 468 Rocket - Orbit

View from above orbital plane
View from above orbital plane
View from above satellite
View from above satellite

Ground track
Ground track

The orbit data is extracted from the following two-line orbital elements,

1  5707U 71114B   20151.72934478 -.00000011 +00000-0 +48286-5 0  9992
2  5707 074.0278 256.2583 0023879 057.3855 302.9599 14.38901929537910
Epoch (UTC): 30 May 2020 17:30:15
Eccentricity: 0.0023879
inclination: 74.0278°
perigee height: 745 km
apogee height: 779 km
right ascension of ascending node: 256.2583°
argument of perigee: 57.3855°
revolutions per day: 14.38901929
mean anomaly at epoch: 302.9599°
orbit number at epoch: 53791

The dashed part of the orbit path shows where the satellite is in the earth's shadow,  

DLR